Year,Month,Day,Hour,Minute,Value (Times are PST for temperature in C)
2016,08,12,00,00,19.30
2016,08,12,00,01,19.30
2016,08,12,00,02,19.30
2016,08,12,00,03,19.30
2016,08,12,00,04,19.30
2016,08,12,00,05,19.20
2016,08,12,00,06,19.20
2016,08,12,00,07,19.20
2016,08,12,00,08,19.20
2016,08,12,00,09,19.20
2016,08,12,00,10,19.10
2016,08,12,00,11,19.10
2016,08,12,00,12,19.00
2016,08,12,00,13,18.90
2016,08,12,00,14,18.90
2016,08,12,00,15,18.80
2016,08,12,00,16,18.80
2016,08,12,00,17,18.80
2016,08,12,00,18,18.70
2016,08,12,00,19,18.70
2016,08,12,00,20,18.70
2016,08,12,00,21,18.60
2016,08,12,00,22,18.60
2016,08,12,00,23,18.60
2016,08,12,00,24,18.50
2016,08,12,00,25,18.50
2016,08,12,00,26,18.40
2016,08,12,00,27,18.40
2016,08,12,00,28,18.40
2016,08,12,00,29,18.40
2016,08,12,00,30,18.30
2016,08,12,00,31,18.30
2016,08,12,00,32,18.30
2016,08,12,00,33,18.30
2016,08,12,00,34,18.30
2016,08,12,00,35,18.20
2016,08,12,00,36,18.20
2016,08,12,00,37,18.20
2016,08,12,00,38,18.10
2016,08,12,00,39,18.10
2016,08,12,00,40,18.10
2016,08,12,00,41,18.10
2016,08,12,00,42,18.10
2016,08,12,00,43,18.10
2016,08,12,00,44,18.00
2016,08,12,00,45,18.00
2016,08,12,00,46,18.00
2016,08,12,00,47,17.90
2016,08,12,00,48,17.90
2016,08,12,00,49,17.90
2016,08,12,00,50,17.90
2016,08,12,00,51,17.90
2016,08,12,00,52,17.90
2016,08,12,00,53,17.90
2016,08,12,00,54,17.80
2016,08,12,00,55,17.80
2016,08,12,00,56,17.80
2016,08,12,00,57,17.80
2016,08,12,00,58,17.80
2016,08,12,00,59,17.80
2016,08,12,01,00,17.80
2016,08,12,01,01,17.80
2016,08,12,01,02,17.80
2016,08,12,01,03,17.70
2016,08,12,01,04,17.70
2016,08,12,01,05,17.70
2016,08,12,01,06,17.70
2016,08,12,01,07,17.70
2016,08,12,01,08,17.70
2016,08,12,01,09,17.70
2016,08,12,01,10,17.60
2016,08,12,01,11,17.60
2016,08,12,01,12,17.60
2016,08,12,01,13,17.60
2016,08,12,01,14,17.60
2016,08,12,01,15,17.60
2016,08,12,01,16,17.50
2016,08,12,01,17,17.50
2016,08,12,01,18,17.50
2016,08,12,01,19,17.50
2016,08,12,01,20,17.50
2016,08,12,01,21,17.50
2016,08,12,01,22,17.50
2016,08,12,01,23,17.40
2016,08,12,01,24,17.40
2016,08,12,01,25,17.40
2016,08,12,01,26,17.40
2016,08,12,01,27,17.40
2016,08,12,01,28,17.40
2016,08,12,01,29,17.30
2016,08,12,01,30,17.30
2016,08,12,01,31,17.30
2016,08,12,01,32,17.30
2016,08,12,01,33,17.30
2016,08,12,01,34,17.20
2016,08,12,01,35,17.20
2016,08,12,01,36,17.20
2016,08,12,01,37,17.20
2016,08,12,01,38,17.20
2016,08,12,01,39,17.20
2016,08,12,01,40,17.20
2016,08,12,01,41,17.20
2016,08,12,01,42,17.10
2016,08,12,01,43,17.20
2016,08,12,01,44,17.10
2016,08,12,01,45,17.10
2016,08,12,01,46,17.10
2016,08,12,01,47,17.10
2016,08,12,01,48,17.10
2016,08,12,01,49,17.10
2016,08,12,01,50,17.10
2016,08,12,01,51,17.10
2016,08,12,01,52,17.10
2016,08,12,01,53,17.10
2016,08,12,01,54,17.10
2016,08,12,01,55,17.10
2016,08,12,01,56,17.10
2016,08,12,01,57,17.10
2016,08,12,01,58,17.10
2016,08,12,01,59,17.10
2016,08,12,02,00,17.10
2016,08,12,02,01,17.10
2016,08,12,02,02,17.10
2016,08,12,02,03,17.10
2016,08,12,02,04,17.10
2016,08,12,02,05,17.10
2016,08,12,02,06,17.10
2016,08,12,02,07,17.00
2016,08,12,02,08,17.00
2016,08,12,02,09,17.00
2016,08,12,02,10,17.00
2016,08,12,02,11,17.00
2016,08,12,02,12,16.90
2016,08,12,02,13,16.90
2016,08,12,02,14,16.90
2016,08,12,02,15,16.90
2016,08,12,02,16,16.90
2016,08,12,02,17,16.90
2016,08,12,02,18,16.80
2016,08,12,02,19,16.80
2016,08,12,02,20,16.80
2016,08,12,02,21,16.80
2016,08,12,02,22,16.80
2016,08,12,02,23,16.70
2016,08,12,02,24,16.70
2016,08,12,02,25,16.70
2016,08,12,02,26,16.70
2016,08,12,02,27,16.60
2016,08,12,02,28,16.60
2016,08,12,02,29,16.60
2016,08,12,02,30,16.60
2016,08,12,02,31,16.60
2016,08,12,02,32,16.50
2016,08,12,02,33,16.50
2016,08,12,02,34,16.50
2016,08,12,02,35,16.40
2016,08,12,02,36,16.40
2016,08,12,02,37,16.40
2016,08,12,02,38,16.40
2016,08,12,02,39,16.40
2016,08,12,02,40,16.40
2016,08,12,02,41,16.30
2016,08,12,02,42,16.30
2016,08,12,02,43,16.30
2016,08,12,02,44,16.30
2016,08,12,02,45,16.20
2016,08,12,02,46,16.20
2016,08,12,02,47,16.20
2016,08,12,02,48,16.20
2016,08,12,02,49,16.10
2016,08,12,02,50,16.10
2016,08,12,02,51,16.10
2016,08,12,02,52,16.10
2016,08,12,02,53,16.10
2016,08,12,02,54,16.10
2016,08,12,02,55,16.10
2016,08,12,02,56,16.10
2016,08,12,02,57,16.10
2016,08,12,02,58,16.10
2016,08,12,02,59,16.00
2016,08,12,03,00,16.00
2016,08,12,03,01,16.00
2016,08,12,03,02,16.00
2016,08,12,03,03,16.00
2016,08,12,03,04,16.00
2016,08,12,03,05,16.00
2016,08,12,03,06,16.00
2016,08,12,03,07,16.00
2016,08,12,03,08,16.00
2016,08,12,03,09,16.00
2016,08,12,03,10,16.00
2016,08,12,03,11,16.00
2016,08,12,03,12,16.00
2016,08,12,03,13,15.90
2016,08,12,03,14,16.00
2016,08,12,03,15,16.00
2016,08,12,03,16,16.00
2016,08,12,03,17,16.00
2016,08,12,03,18,16.10
2016,08,12,03,19,16.10
2016,08,12,03,20,16.10
2016,08,12,03,21,16.10
2016,08,12,03,22,16.10
2016,08,12,03,23,16.00
2016,08,12,03,24,16.00
2016,08,12,03,25,16.00
2016,08,12,03,26,16.00
2016,08,12,03,27,16.00
2016,08,12,03,28,15.90
2016,08,12,03,29,15.90
2016,08,12,03,30,15.90
2016,08,12,03,31,15.90
2016,08,12,03,32,15.90
2016,08,12,03,33,15.80
2016,08,12,03,34,15.80
2016,08,12,03,35,15.80
2016,08,12,03,36,15.80
2016,08,12,03,37,15.80
2016,08,12,03,38,15.80
2016,08,12,03,39,15.70
2016,08,12,03,40,15.70
2016,08,12,03,41,15.70
2016,08,12,03,42,15.70
2016,08,12,03,43,15.70
2016,08,12,03,44,15.70
2016,08,12,03,45,15.70
2016,08,12,03,46,15.70
2016,08,12,03,47,15.70
2016,08,12,03,48,15.70
2016,08,12,03,49,15.70
2016,08,12,03,50,15.70
2016,08,12,03,51,15.70
2016,08,12,03,52,15.70
2016,08,12,03,53,15.70
2016,08,12,03,54,15.70
2016,08,12,03,55,15.70
2016,08,12,03,56,15.70
2016,08,12,03,57,15.70
2016,08,12,03,58,15.70
2016,08,12,03,59,15.70
2016,08,12,04,00,15.70
2016,08,12,04,01,15.70
2016,08,12,04,02,15.70
2016,08,12,04,03,15.70
2016,08,12,04,04,15.70
2016,08,12,04,05,15.70
2016,08,12,04,06,15.70
2016,08,12,04,07,15.70
2016,08,12,04,08,15.70
2016,08,12,04,09,15.70
2016,08,12,04,10,15.70
2016,08,12,04,11,15.70
2016,08,12,04,12,15.70
2016,08,12,04,13,15.70
2016,08,12,04,14,15.70
2016,08,12,04,15,15.70
2016,08,12,04,16,15.70
2016,08,12,04,17,15.70
2016,08,12,04,18,15.70
2016,08,12,04,19,15.70
2016,08,12,04,20,15.70
2016,08,12,04,21,15.60
2016,08,12,04,22,15.60
2016,08,12,04,23,15.60
2016,08,12,04,24,15.60
2016,08,12,04,25,15.60
2016,08,12,04,26,15.60
2016,08,12,04,27,15.60
2016,08,12,04,28,15.60
2016,08,12,04,29,15.60
2016,08,12,04,30,15.60
2016,08,12,04,31,15.60
2016,08,12,04,32,15.60
2016,08,12,04,33,15.60
2016,08,12,04,34,15.60
2016,08,12,04,35,15.60
2016,08,12,04,36,15.50
2016,08,12,04,37,15.50
2016,08,12,04,38,15.50
2016,08,12,04,39,15.50
2016,08,12,04,40,15.50
2016,08,12,04,41,15.50
2016,08,12,04,42,15.50
2016,08,12,04,43,15.50
2016,08,12,04,44,15.40
2016,08,12,04,45,15.40
2016,08,12,04,46,15.40
2016,08,12,04,47,15.40
2016,08,12,04,48,15.40
2016,08,12,04,49,15.40
2016,08,12,04,50,15.40
2016,08,12,04,51,15.40
2016,08,12,04,52,15.40
2016,08,12,04,53,15.40
2016,08,12,04,54,15.40
2016,08,12,04,55,15.40
2016,08,12,04,56,15.30
2016,08,12,04,57,15.30
2016,08,12,04,58,15.30
2016,08,12,04,59,15.30
2016,08,12,05,00,15.20
2016,08,12,05,01,15.20
2016,08,12,05,02,15.20
2016,08,12,05,03,15.20
2016,08,12,05,04,15.20
2016,08,12,05,05,15.20
2016,08,12,05,06,15.20
2016,08,12,05,07,15.20
2016,08,12,05,08,15.20
2016,08,12,05,09,15.20
2016,08,12,05,10,15.20
2016,08,12,05,11,15.20
2016,08,12,05,12,15.10
2016,08,12,05,13,15.10
2016,08,12,05,14,15.10
2016,08,12,05,15,15.10
2016,08,12,05,16,15.10
2016,08,12,05,17,15.10
2016,08,12,05,18,15.10
2016,08,12,05,19,15.10
2016,08,12,05,20,15.10
2016,08,12,05,21,15.10
2016,08,12,05,22,15.10
2016,08,12,05,23,15.10
2016,08,12,05,24,15.10
2016,08,12,05,25,15.10
2016,08,12,05,26,15.00
2016,08,12,05,27,15.00
2016,08,12,05,28,15.00
2016,08,12,05,29,15.00
2016,08,12,05,30,14.90
2016,08,12,05,31,14.90
2016,08,12,05,32,14.90
2016,08,12,05,33,14.90
2016,08,12,05,34,14.90
2016,08,12,05,35,14.90
2016,08,12,05,36,14.90
2016,08,12,05,37,14.80
2016,08,12,05,38,14.80
2016,08,12,05,39,14.80
2016,08,12,05,40,14.80
2016,08,12,05,41,14.80
2016,08,12,05,42,14.80
2016,08,12,05,43,14.80
2016,08,12,05,44,14.80
2016,08,12,05,45,14.80
2016,08,12,05,46,14.80
2016,08,12,05,47,14.80
2016,08,12,05,48,14.80
2016,08,12,05,49,14.70
2016,08,12,05,50,14.70
2016,08,12,05,51,14.70
2016,08,12,05,52,14.70
2016,08,12,05,53,14.70
2016,08,12,05,54,14.70
2016,08,12,05,55,14.70
2016,08,12,05,56,14.70
2016,08,12,05,57,14.70
2016,08,12,05,58,14.70
2016,08,12,05,59,14.70
2016,08,12,06,00,14.70
2016,08,12,06,01,14.70
2016,08,12,06,02,14.70
2016,08,12,06,03,14.70
2016,08,12,06,04,14.70
2016,08,12,06,05,14.70
2016,08,12,06,06,14.70
2016,08,12,06,07,14.70
2016,08,12,06,08,14.60
2016,08,12,06,09,14.60
2016,08,12,06,10,14.60
2016,08,12,06,11,14.60
2016,08,12,06,12,14.60
2016,08,12,06,13,14.60
2016,08,12,06,14,14.50
2016,08,12,06,15,14.50
2016,08,12,06,16,14.40
2016,08,12,06,17,14.40
2016,08,12,06,18,14.40
2016,08,12,06,19,14.40
2016,08,12,06,20,14.40
2016,08,12,06,21,14.40
2016,08,12,06,22,14.40
2016,08,12,06,23,14.30
2016,08,12,06,24,14.30
2016,08,12,06,25,14.30
2016,08,12,06,26,14.30
2016,08,12,06,27,14.30
2016,08,12,06,28,14.30
2016,08,12,06,29,14.30
2016,08,12,06,30,14.30
2016,08,12,06,31,14.30
2016,08,12,06,32,14.30
2016,08,12,06,33,14.30
2016,08,12,06,34,14.30
2016,08,12,06,35,14.30
2016,08,12,06,36,14.30
2016,08,12,06,37,14.30
2016,08,12,06,38,14.30
2016,08,12,06,39,14.30
2016,08,12,06,40,14.30
2016,08,12,06,41,14.30
2016,08,12,06,42,14.30
2016,08,12,06,43,14.40
2016,08,12,06,44,14.40
2016,08,12,06,45,14.40
2016,08,12,06,46,14.40
2016,08,12,06,47,14.40
2016,08,12,06,48,14.40
2016,08,12,06,49,14.50
2016,08,12,06,50,14.50
2016,08,12,06,51,14.50
2016,08,12,06,52,14.50
2016,08,12,06,53,14.50
2016,08,12,06,54,14.60
2016,08,12,06,55,14.60
2016,08,12,06,56,14.60
2016,08,12,06,57,14.60
2016,08,12,06,58,14.60
2016,08,12,06,59,14.60
2016,08,12,07,00,14.70
2016,08,12,07,01,14.70
2016,08,12,07,02,14.70
2016,08,12,07,03,14.70
2016,08,12,07,04,14.70
2016,08,12,07,05,14.80
2016,08,12,07,06,14.80
2016,08,12,07,07,14.80
2016,08,12,07,08,14.80
2016,08,12,07,09,14.80
2016,08,12,07,10,14.90
2016,08,12,07,11,14.90
2016,08,12,07,12,14.90
2016,08,12,07,13,15.00
2016,08,12,07,14,15.00
2016,08,12,07,15,15.00
2016,08,12,07,16,15.10
2016,08,12,07,17,15.10
2016,08,12,07,18,15.10
2016,08,12,07,19,15.20
2016,08,12,07,20,15.20
2016,08,12,07,21,15.20
2016,08,12,07,22,15.30
2016,08,12,07,23,15.30
2016,08,12,07,24,15.30
2016,08,12,07,25,15.30
2016,08,12,07,26,15.40
2016,08,12,07,27,15.40
2016,08,12,07,28,15.40
2016,08,12,07,29,15.40
2016,08,12,07,30,15.50
2016,08,12,07,31,15.50
2016,08,12,07,32,15.50
2016,08,12,07,33,15.60
2016,08,12,07,34,15.60
2016,08,12,07,35,15.60
2016,08,12,07,36,15.60
2016,08,12,07,37,15.60
2016,08,12,07,38,15.60
2016,08,12,07,39,15.70
2016,08,12,07,40,15.70
2016,08,12,07,41,15.70
2016,08,12,07,42,15.70
2016,08,12,07,43,15.70
2016,08,12,07,44,15.80
2016,08,12,07,45,15.80
2016,08,12,07,46,15.90
2016,08,12,07,47,15.90
2016,08,12,07,48,16.00
2016,08,12,07,49,16.00
2016,08,12,07,50,16.10
2016,08,12,07,51,16.10
2016,08,12,07,52,16.20
2016,08,12,07,53,16.20
2016,08,12,07,54,16.20
2016,08,12,07,55,16.30
2016,08,12,07,56,16.30
2016,08,12,07,57,16.30
2016,08,12,07,58,16.40
2016,08,12,07,59,16.40
2016,08,12,08,00,16.40
2016,08,12,08,01,16.50
2016,08,12,08,02,16.50
2016,08,12,08,03,16.60
2016,08,12,08,04,16.60
2016,08,12,08,05,16.70
2016,08,12,08,06,16.70
2016,08,12,08,07,16.80
2016,08,12,08,08,16.80
2016,08,12,08,09,16.90
2016,08,12,08,10,17.00
2016,08,12,08,11,17.00
2016,08,12,08,12,17.10
2016,08,12,08,13,17.20
2016,08,12,08,14,17.20
2016,08,12,08,15,17.30
2016,08,12,08,16,17.40
2016,08,12,08,17,17.50
2016,08,12,08,18,17.50
2016,08,12,08,19,17.60
2016,08,12,08,20,17.70
2016,08,12,08,21,17.80
2016,08,12,08,22,17.80
2016,08,12,08,23,17.90
2016,08,12,08,24,17.90
2016,08,12,08,25,18.00
2016,08,12,08,26,18.00
2016,08,12,08,27,18.10
2016,08,12,08,28,18.20
2016,08,12,08,29,18.20
2016,08,12,08,30,18.30
2016,08,12,08,31,18.30
2016,08,12,08,32,18.30
2016,08,12,08,33,18.40
2016,08,12,08,34,18.40
2016,08,12,08,35,18.50
2016,08,12,08,36,18.60
2016,08,12,08,37,18.60
2016,08,12,08,38,18.70
2016,08,12,08,39,18.70
2016,08,12,08,40,18.80
2016,08,12,08,41,18.80
2016,08,12,08,42,18.90
2016,08,12,08,43,19.00
2016,08,12,08,44,19.00
2016,08,12,08,45,19.10
2016,08,12,08,46,19.20
2016,08,12,08,47,19.30
2016,08,12,08,48,19.40
2016,08,12,08,49,19.40
2016,08,12,08,50,19.50
2016,08,12,08,51,19.60
2016,08,12,08,52,19.70
2016,08,12,08,53,19.80
2016,08,12,08,54,19.80
2016,08,12,08,55,20.00
2016,08,12,08,56,20.10
2016,08,12,08,57,20.20
2016,08,12,08,58,20.30
2016,08,12,08,59,20.50
2016,08,12,09,00,20.60
2016,08,12,09,01,20.80
2016,08,12,09,02,20.90
2016,08,12,09,03,21.00
2016,08,12,09,04,21.10
2016,08,12,09,05,21.20
2016,08,12,09,06,21.30
2016,08,12,09,07,21.40
2016,08,12,09,08,21.40
2016,08,12,09,09,21.40
2016,08,12,09,10,21.40
2016,08,12,09,11,21.40
2016,08,12,09,12,21.40
2016,08,12,09,13,21.40
2016,08,12,09,14,21.50
2016,08,12,09,15,21.60
2016,08,12,09,16,21.60
2016,08,12,09,17,21.70
2016,08,12,09,18,21.70
2016,08,12,09,19,21.80
2016,08,12,09,20,21.80
2016,08,12,09,21,21.90
2016,08,12,09,22,21.90
2016,08,12,09,23,21.90
2016,08,12,09,24,21.90
2016,08,12,09,25,21.90
2016,08,12,09,26,21.90
2016,08,12,09,27,21.90
2016,08,12,09,28,21.90
2016,08,12,09,29,21.90
2016,08,12,09,30,21.90
2016,08,12,09,31,21.90
2016,08,12,09,32,22.00
2016,08,12,09,33,22.00
2016,08,12,09,34,22.10
2016,08,12,09,35,22.10
2016,08,12,09,36,22.10
2016,08,12,09,37,22.20
2016,08,12,09,38,22.20
2016,08,12,09,39,22.20
2016,08,12,09,40,22.20
2016,08,12,09,41,22.30
2016,08,12,09,42,22.30
2016,08,12,09,43,22.30
2016,08,12,09,44,22.30
2016,08,12,09,45,22.30
2016,08,12,09,46,22.30
2016,08,12,09,47,22.30
2016,08,12,09,48,22.30
2016,08,12,09,49,22.30
2016,08,12,09,50,22.30
2016,08,12,09,51,22.30
2016,08,12,09,52,22.40
2016,08,12,09,53,22.40
2016,08,12,09,54,22.50
2016,08,12,09,55,22.50
2016,08,12,09,56,22.50
2016,08,12,09,57,22.50
2016,08,12,09,58,22.50
2016,08,12,09,59,22.50
2016,08,12,10,00,22.60
2016,08,12,10,01,22.60
2016,08,12,10,02,22.60
2016,08,12,10,03,22.70
2016,08,12,10,04,22.70
2016,08,12,10,05,22.70
2016,08,12,10,06,22.80
2016,08,12,10,07,22.80
2016,08,12,10,08,22.80
2016,08,12,10,09,22.80
2016,08,12,10,10,22.80
2016,08,12,10,11,22.80
2016,08,12,10,12,22.90
2016,08,12,10,13,22.90
2016,08,12,10,14,23.00
2016,08,12,10,15,23.00
2016,08,12,10,16,23.10
2016,08,12,10,17,23.10
2016,08,12,10,18,23.20
2016,08,12,10,19,23.20
2016,08,12,10,20,23.20
2016,08,12,10,21,23.20
2016,08,12,10,22,23.20
2016,08,12,10,23,23.20
2016,08,12,10,24,23.30
2016,08,12,10,25,23.30
2016,08,12,10,26,23.30
2016,08,12,10,27,23.40
2016,08,12,10,28,23.40
2016,08,12,10,29,23.50
2016,08,12,10,30,23.60
2016,08,12,10,31,23.70
2016,08,12,10,32,23.70
2016,08,12,10,33,23.80
2016,08,12,10,34,23.90
2016,08,12,10,35,23.90
2016,08,12,10,36,23.90
2016,08,12,10,37,24.00
2016,08,12,10,38,24.00
2016,08,12,10,39,24.10
2016,08,12,10,40,24.20
2016,08,12,10,41,24.30
2016,08,12,10,42,24.30
2016,08,12,10,43,24.40
2016,08,12,10,44,24.40
2016,08,12,10,45,24.50
2016,08,12,10,46,24.60
2016,08,12,10,47,24.60
2016,08,12,10,48,24.70
2016,08,12,10,49,24.70
2016,08,12,10,50,24.80
2016,08,12,10,51,24.80
2016,08,12,10,52,24.90
2016,08,12,10,53,24.90
2016,08,12,10,54,24.90
2016,08,12,10,55,25.00
2016,08,12,10,56,25.00
2016,08,12,10,57,25.10
2016,08,12,10,58,25.10
2016,08,12,10,59,25.20
2016,08,12,11,00,25.20
2016,08,12,11,01,25.30
2016,08,12,11,02,25.30
2016,08,12,11,03,25.30
2016,08,12,11,04,25.30
2016,08,12,11,05,25.40
2016,08,12,11,06,25.40
2016,08,12,11,07,25.40
2016,08,12,11,08,25.30
2016,08,12,11,09,25.30
2016,08,12,11,10,25.30
2016,08,12,11,11,25.30
2016,08,12,11,12,25.30
2016,08,12,11,13,25.30
2016,08,12,11,14,25.30
2016,08,12,11,15,25.30
2016,08,12,11,16,25.30
2016,08,12,11,17,25.40
2016,08,12,11,18,25.40
2016,08,12,11,19,25.50
2016,08,12,11,20,25.60
2016,08,12,11,21,25.60
2016,08,12,11,22,25.70
2016,08,12,11,23,25.70
2016,08,12,11,24,25.80
2016,08,12,11,25,25.80
2016,08,12,11,26,25.80
2016,08,12,11,27,25.90
2016,08,12,11,28,25.90
2016,08,12,11,29,25.90
2016,08,12,11,30,25.90
2016,08,12,11,31,25.90
2016,08,12,11,32,26.00
2016,08,12,11,33,26.00
2016,08,12,11,34,26.00
2016,08,12,11,35,26.00
2016,08,12,11,36,26.10
2016,08,12,11,37,26.10
2016,08,12,11,38,26.10
2016,08,12,11,39,26.20
2016,08,12,11,40,26.20
2016,08,12,11,41,26.30
2016,08,12,11,42,26.30
2016,08,12,11,43,26.30
2016,08,12,11,44,26.30
2016,08,12,11,45,26.30
2016,08,12,11,46,26.30
2016,08,12,11,47,26.30
2016,08,12,11,48,26.30
2016,08,12,11,49,26.30
2016,08,12,11,50,26.30
2016,08,12,11,51,26.40
2016,08,12,11,52,26.40
2016,08,12,11,53,26.40
2016,08,12,11,54,26.40
2016,08,12,11,55,26.40
2016,08,12,11,56,26.40
2016,08,12,11,57,26.50
2016,08,12,11,58,26.50
2016,08,12,11,59,26.50
2016,08,12,12,00,26.40
2016,08,12,12,01,26.40
2016,08,12,12,02,26.50
2016,08,12,12,03,26.50
2016,08,12,12,04,26.60
2016,08,12,12,05,26.60
2016,08,12,12,06,26.60
2016,08,12,12,07,26.60
2016,08,12,12,08,26.60
2016,08,12,12,09,26.60
2016,08,12,12,10,26.60
2016,08,12,12,11,26.60
2016,08,12,12,12,26.60
2016,08,12,12,13,26.60
2016,08,12,12,14,26.60
2016,08,12,12,15,26.60
2016,08,12,12,16,26.70
2016,08,12,12,17,26.70
2016,08,12,12,18,26.80
2016,08,12,12,19,26.80
2016,08,12,12,20,26.80
2016,08,12,12,21,26.80
2016,08,12,12,22,26.90
2016,08,12,12,23,26.90
2016,08,12,12,24,26.90
2016,08,12,12,25,26.90
2016,08,12,12,26,26.80
2016,08,12,12,27,26.80
2016,08,12,12,28,26.80
2016,08,12,12,29,26.70
2016,08,12,12,30,26.70
2016,08,12,12,31,26.70
2016,08,12,12,32,26.70
2016,08,12,12,33,26.70
2016,08,12,12,34,26.80
2016,08,12,12,35,26.80
2016,08,12,12,36,26.90
2016,08,12,12,37,26.90
2016,08,12,12,38,26.90
2016,08,12,12,39,26.80
2016,08,12,12,40,26.80
2016,08,12,12,41,26.80
2016,08,12,12,42,26.80
2016,08,12,12,43,26.80
2016,08,12,12,44,26.80
2016,08,12,12,45,26.90
2016,08,12,12,46,26.90
2016,08,12,12,47,26.90
2016,08,12,12,48,27.00
2016,08,12,12,49,27.10
2016,08,12,12,50,27.10
2016,08,12,12,51,27.20
2016,08,12,12,52,27.10
2016,08,12,12,53,27.20
2016,08,12,12,54,27.20
2016,08,12,12,55,27.20
2016,08,12,12,56,27.30
2016,08,12,12,57,27.30
2016,08,12,12,58,27.40
2016,08,12,12,59,27.40
2016,08,12,13,00,27.40
2016,08,12,13,01,27.50
2016,08,12,13,02,27.50
2016,08,12,13,03,27.60
2016,08,12,13,04,27.60
2016,08,12,13,05,27.70
2016,08,12,13,06,27.70
2016,08,12,13,07,27.80
2016,08,12,13,08,27.80
2016,08,12,13,09,27.80
2016,08,12,13,10,27.80
2016,08,12,13,11,27.80
2016,08,12,13,12,27.90
2016,08,12,13,13,27.80
2016,08,12,13,14,27.80
2016,08,12,13,15,27.70
2016,08,12,13,16,27.70
2016,08,12,13,17,27.70
2016,08,12,13,18,27.60
2016,08,12,13,19,27.60
2016,08,12,13,20,27.60
2016,08,12,13,21,27.70
2016,08,12,13,22,27.70
2016,08,12,13,23,27.70
2016,08,12,13,24,27.80
2016,08,12,13,25,27.80
2016,08,12,13,26,27.90
2016,08,12,13,27,27.90
2016,08,12,13,28,27.90
2016,08,12,13,29,27.90
2016,08,12,13,30,28.00
2016,08,12,13,31,28.00
2016,08,12,13,32,28.10
2016,08,12,13,33,28.10
2016,08,12,13,34,28.00
2016,08,12,13,35,27.90
2016,08,12,13,36,27.90
2016,08,12,13,37,27.90
2016,08,12,13,38,27.90
2016,08,12,13,39,27.90
2016,08,12,13,40,27.90
2016,08,12,13,41,27.90
2016,08,12,13,42,27.90
2016,08,12,13,43,27.90
2016,08,12,13,44,27.90
2016,08,12,13,45,27.90
2016,08,12,13,46,27.90
2016,08,12,13,47,28.00
2016,08,12,13,48,28.00
2016,08,12,13,49,28.00
2016,08,12,13,50,28.00
2016,08,12,13,51,28.00
2016,08,12,13,52,28.00
2016,08,12,13,53,28.00
2016,08,12,13,54,28.00
2016,08,12,13,55,28.00
2016,08,12,13,56,28.00
2016,08,12,13,57,28.00
2016,08,12,13,58,28.00
2016,08,12,13,59,28.00
2016,08,12,14,00,28.00
2016,08,12,14,01,28.00
2016,08,12,14,02,28.00
2016,08,12,14,03,28.00
2016,08,12,14,04,27.90
2016,08,12,14,05,27.90
2016,08,12,14,06,27.90
2016,08,12,14,07,27.90
2016,08,12,14,08,28.00
2016,08,12,14,09,28.00
2016,08,12,14,10,28.00
2016,08,12,14,11,28.00
2016,08,12,14,12,28.00
2016,08,12,14,13,28.00
2016,08,12,14,14,27.90
2016,08,12,14,15,27.90
2016,08,12,14,16,27.90
2016,08,12,14,17,27.90
2016,08,12,14,18,27.90
2016,08,12,14,19,27.90
2016,08,12,14,20,27.90
2016,08,12,14,21,27.80
2016,08,12,14,22,27.80
2016,08,12,14,23,27.90
2016,08,12,14,24,27.90
2016,08,12,14,25,27.90
2016,08,12,14,26,27.90
2016,08,12,14,27,27.90
2016,08,12,14,28,27.90
2016,08,12,14,29,27.90
2016,08,12,14,30,27.90
2016,08,12,14,31,27.90
2016,08,12,14,32,27.90
2016,08,12,14,33,27.90
2016,08,12,14,34,27.90
2016,08,12,14,35,27.80
2016,08,12,14,36,27.80
2016,08,12,14,37,27.80
2016,08,12,14,38,27.80
2016,08,12,14,39,27.80
2016,08,12,14,40,27.80
2016,08,12,14,41,27.80
2016,08,12,14,42,27.80
2016,08,12,14,43,27.80
2016,08,12,14,44,27.90
2016,08,12,14,45,27.90
2016,08,12,14,46,27.90
2016,08,12,14,47,27.90
2016,08,12,14,48,27.90
2016,08,12,14,49,28.00
2016,08,12,14,50,28.00
2016,08,12,14,51,27.90
2016,08,12,14,52,27.90
2016,08,12,14,53,27.90
2016,08,12,14,54,27.90
2016,08,12,14,55,27.90
2016,08,12,14,56,28.00
2016,08,12,14,57,28.00
2016,08,12,14,58,28.10
2016,08,12,14,59,28.10
2016,08,12,15,00,28.00
2016,08,12,15,01,28.00
2016,08,12,15,02,28.00
2016,08,12,15,03,28.00
2016,08,12,15,04,28.10
2016,08,12,15,05,28.10
2016,08,12,15,06,28.10
2016,08,12,15,07,28.10
2016,08,12,15,08,28.10
2016,08,12,15,09,28.10
2016,08,12,15,10,28.20
2016,08,12,15,11,28.20
2016,08,12,15,12,28.20
2016,08,12,15,13,28.20
2016,08,12,15,14,28.20
2016,08,12,15,15,28.30
2016,08,12,15,16,28.30
2016,08,12,15,17,28.30
2016,08,12,15,18,28.30
2016,08,12,15,19,28.20
2016,08,12,15,20,28.30
2016,08,12,15,21,28.30
2016,08,12,15,22,28.30
2016,08,12,15,23,28.20
2016,08,12,15,24,28.20
2016,08,12,15,25,28.30
2016,08,12,15,26,28.30
2016,08,12,15,27,28.30
2016,08,12,15,28,28.30
2016,08,12,15,29,28.30
2016,08,12,15,30,28.30
2016,08,12,15,31,28.30
2016,08,12,15,32,28.30
2016,08,12,15,33,28.30
2016,08,12,15,34,28.20
2016,08,12,15,35,28.20
2016,08,12,15,36,28.30
2016,08,12,15,37,28.30
2016,08,12,15,38,28.30
2016,08,12,15,39,28.30
2016,08,12,15,40,28.30
2016,08,12,15,41,28.30
2016,08,12,15,42,28.30
2016,08,12,15,43,28.30
2016,08,12,15,44,28.30
2016,08,12,15,45,28.30
2016,08,12,15,46,28.30
2016,08,12,15,47,28.30
2016,08,12,15,48,28.40
2016,08,12,15,49,28.40
2016,08,12,15,50,28.40
2016,08,12,15,51,28.50
2016,08,12,15,52,28.50
2016,08,12,15,53,28.60
2016,08,12,15,54,28.60
2016,08,12,15,55,28.60
2016,08,12,15,56,28.60
2016,08,12,15,57,28.70
2016,08,12,15,58,28.70
2016,08,12,15,59,28.70
2016,08,12,16,00,28.70
2016,08,12,16,01,28.70
2016,08,12,16,02,28.70
2016,08,12,16,03,28.70
2016,08,12,16,04,28.70
2016,08,12,16,05,28.70
2016,08,12,16,06,28.70
2016,08,12,16,07,28.80
2016,08,12,16,08,28.80
2016,08,12,16,09,28.80
2016,08,12,16,10,28.80
2016,08,12,16,11,28.80
2016,08,12,16,12,28.80
2016,08,12,16,13,28.80
2016,08,12,16,14,28.80
2016,08,12,16,15,28.80
2016,08,12,16,16,28.80
2016,08,12,16,17,28.80
2016,08,12,16,18,28.80
2016,08,12,16,19,28.80
2016,08,12,16,20,28.80
2016,08,12,16,21,28.90
2016,08,12,16,22,28.90
2016,08,12,16,23,28.90
2016,08,12,16,24,28.90
2016,08,12,16,25,28.80
2016,08,12,16,26,28.80
2016,08,12,16,27,28.80
2016,08,12,16,28,28.80
2016,08,12,16,29,28.70
2016,08,12,16,30,28.70
2016,08,12,16,31,28.60
2016,08,12,16,32,28.60
2016,08,12,16,33,28.50
2016,08,12,16,34,28.50
2016,08,12,16,35,28.40
2016,08,12,16,36,28.40
2016,08,12,16,37,28.30
2016,08,12,16,38,28.30
2016,08,12,16,39,28.30
2016,08,12,16,40,28.40
2016,08,12,16,41,28.40
2016,08,12,16,42,28.40
2016,08,12,16,43,28.40
2016,08,12,16,44,28.40
2016,08,12,16,45,28.30
2016,08,12,16,46,28.30
2016,08,12,16,47,28.40
2016,08,12,16,48,28.40
2016,08,12,16,49,28.40
2016,08,12,16,50,28.40
2016,08,12,16,51,28.40
2016,08,12,16,52,28.40
2016,08,12,16,53,28.50
2016,08,12,16,54,28.50
2016,08,12,16,55,28.50
2016,08,12,16,56,28.60
2016,08,12,16,57,28.60
2016,08,12,16,58,28.60
2016,08,12,16,59,28.60
2016,08,12,17,00,28.60
2016,08,12,17,01,28.50
2016,08,12,17,02,28.50
2016,08,12,17,03,28.60
2016,08,12,17,04,28.50
2016,08,12,17,05,28.50
2016,08,12,17,06,28.60
2016,08,12,17,07,28.50
2016,08,12,17,08,28.50
2016,08,12,17,09,28.50
2016,08,12,17,10,28.50
2016,08,12,17,11,28.50
2016,08,12,17,12,28.50
2016,08,12,17,13,28.50
2016,08,12,17,14,28.50
2016,08,12,17,15,28.50
2016,08,12,17,16,28.50
2016,08,12,17,17,28.40
2016,08,12,17,18,28.40
2016,08,12,17,19,28.30